When you browse on this site, cookies collect data to enhance your experience and personalize the content and advertising you see.
Visit our Privacy Policy to learn more. By continuing to use the site, you agree to this use of cookies and data.
  • Em Portugal
  • Lista de países
  • Para 7 dias
  • Temperatura da água
  • Mapas de satélite
  • Mapa do tempo
  • Widgets de tempo
  • user-avatar
    Iniciar Sessão

    Previsão horária em Nesebyr

    Hoje, 19 Fevereiro, Terça-feira

    Tempo Temperatura Precipitação Vento Pressão Humidade
    00:00 +8°C° 0 mm 1 m/s 766 mmHg 72%
    01:00 +8°C° 0 mm 1 m/s 766 mmHg 73%
    02:00 +7°C° 0 mm 1 m/s 766 mmHg 74%
    03:00 +7°C° 0 mm 1 m/s 766 mmHg 74%
    04:00 +7°C° 0 mm 1 m/s 766 mmHg 75%
    05:00 +7°C° 0 mm 1 m/s 766 mmHg 76%
    06:00 +7°C° 0 mm 1 m/s 766 mmHg 76%
    07:00 +7°C° 0 mm 1 m/s 766 mmHg 76%
    08:00 +8°C° 0 mm 1 m/s 766 mmHg 75%
    09:00 +9°C° 0 mm 1 m/s 766 mmHg 69%
    10:00 +10°C° 0 mm 2 m/s 766 mmHg 63%
    11:00 +13°C° 0 mm 2 m/s 766 mmHg 57%
    12:00 +14°C° 0 mm 2 m/s 765 mmHg 55%
    13:00 +15°C° 0 mm 2 m/s 765 mmHg 53%
    14:00 +15°C° 0 mm 2 m/s 765 mmHg 51%
    15:00 +14°C° 0 mm 3 m/s 765 mmHg 56%
    16:00 +13°C° 0 mm 3 m/s 764 mmHg 60%
    17:00 +13°C° 0 mm 3 m/s 764 mmHg 65%
    18:00 +11°C° 0 mm 3 m/s 764 mmHg 72%
    19:00 +10°C° 0 mm 3 m/s 764 mmHg 79%
    20:00 +9°C° 0 mm 3 m/s 764 mmHg 85%
    21:00 +8°C° 0 mm 2 m/s 764 mmHg 86%
    22:00 +8°C° 0 mm 2 m/s 764 mmHg 86%
    23:00 +8°C° 0 mm 2 m/s 764 mmHg 87%

    Amanhã, 20 Fevereiro, Quarta-feira

    Tempo Temperatura Precipitação Vento Pressão Humidade
    00:00 +8°C° 0 mm 1 m/s 764 mmHg 87%
    01:00 +8°C° 0 mm 1 m/s 764 mmHg 86%
    02:00 +8°C° 0 mm 1 m/s 763 mmHg 86%
    03:00 +8°C° 0 mm 1 m/s 763 mmHg 85%
    04:00 +8°C° 0 mm 1 m/s 763 mmHg 84%
    05:00 +6°C° 0 mm 2 m/s 762 mmHg 83%
    06:00 +6°C° 0 mm 2 m/s 763 mmHg 82%
    07:00 +7°C° 0 mm 2 m/s 763 mmHg 80%
    08:00 +7°C° 0 mm 2 m/s 763 mmHg 79%
    09:00 +9°C° 0 mm 2 m/s 762 mmHg 72%
    10:00 +11°C° 0 mm 3 m/s 762 mmHg 65%
    11:00 +13°C° 0 mm 3 m/s 762 mmHg 58%
    12:00 +14°C° 0 mm 3 m/s 762 mmHg 55%
    13:00 +16°C° 0 mm 3 m/s 762 mmHg 51%
    14:00 +17°C° 0 mm 3 m/s 762 mmHg 48%
    15:00 +17°C° 0 mm 2 m/s 761 mmHg 49%
    16:00 +16°C° 0 mm 2 m/s 761 mmHg 51%
    17:00 +16°C° 0 mm 2 m/s 761 mmHg 52%
    18:00 +14°C° 0 mm 2 m/s 762 mmHg 55%
    19:00 +13°C° 0 mm 2 m/s 762 mmHg 58%
    20:00 +12°C° 0 mm 2 m/s 762 mmHg 61%
    21:00 +10°C° 0 mm 2 m/s 763 mmHg 62%
    22:00 +10°C° 0 mm 2 m/s 763 mmHg 63%
    23:00 +9°C° 0 mm 3 m/s 763 mmHg 65%

    Depois de amanhã, 21 Fevereiro, Quinta-feira

    Tempo Temperatura Precipitação Vento Pressão Humidade
    00:00 +9°C° 0 mm 3 m/s 763 mmHg 67%
    01:00 +9°C° 0 mm 3 m/s 764 mmHg 69%
    02:00 +8°C° 0 mm 3 m/s 764 mmHg 71%
    03:00 +8°C° 0 mm 3 m/s 764 mmHg 72%
    04:00 +7°C° 0 mm 3 m/s 764 mmHg 74%
    05:00 +7°C° 0 mm 3 m/s 764 mmHg 75%
    06:00 +7°C° 0 mm 3 m/s 765 mmHg 75%
    07:00 +7°C° 0 mm 3 m/s 765 mmHg 76%
    08:00 +7°C° 0 mm 2 m/s 766 mmHg 76%
    09:00 +8°C° 0 mm 2 m/s 766 mmHg 72%
    10:00 +9°C° 0 mm 2 m/s 766 mmHg 67%
    11:00 +12°C° 0 mm 2 m/s 766 mmHg 63%
    12:00 +12°C° 0 mm 2 m/s 766 mmHg 61%
    13:00 +13°C° 0 mm 1 m/s 766 mmHg 59%
    14:00 +13°C° 0 mm 1 m/s 766 mmHg 57%
    15:00 +13°C° 0 mm 1 m/s 766 mmHg 57%
    16:00 +13°C° 0 mm 1 m/s 766 mmHg 58%
    17:00 +13°C° 0 mm 1 m/s 766 mmHg 59%
    18:00 +12°C° 0 mm 1 m/s 766 mmHg 64%
    19:00 +10°C° 0 mm 1 m/s 766 mmHg 69%
    20:00 +9°C° 0 mm 1 m/s 766 mmHg 74%
    21:00 +9°C° 0 mm 1 m/s 766 mmHg 74%
    22:00 +8°C° 0 mm 2 m/s 766 mmHg 74%
    23:00 +8°C° 0 mm 2 m/s 766 mmHg 74%

    22 Fevereiro, Sexta-feira

    Tempo Temperatura Precipitação Vento Pressão Humidade
    00:00 +7°C° 0 mm 2 m/s 765 mmHg 74%
    01:00 +7°C° 0 mm 2 m/s 765 mmHg 75%
    02:00 +7°C° 0 mm 2 m/s 765 mmHg 76%
    03:00 +7°C° 0 mm 2 m/s 764 mmHg 79%
    04:00 +6°C° 0 mm 2 m/s 764 mmHg 82%
    05:00 +6°C° 0 mm 2 m/s 763 mmHg 85%
    06:00 +7°C° 0 mm 3 m/s 763 mmHg 84%
    07:00 +7°C° 0 mm 3 m/s 762 mmHg 82%
    08:00 +7°C° 0 mm 3 m/s 762 mmHg 81%
    09:00 +6°C° 0.3 mm 4 m/s 762 mmHg 77%
    10:00 +7°C° 0.3 mm 4 m/s 761 mmHg 73%
    11:00 +7°C° 0.3 mm 4 m/s 761 mmHg 70%
    12:00 +7°C° 0.3 mm 5 m/s 760 mmHg 70%
    13:00 +8°C° 0.3 mm 5 m/s 759 mmHg 70%
    14:00 +8°C° 0.3 mm 5 m/s 759 mmHg 70%
    15:00 +8°C° 0 mm 4 m/s 759 mmHg 71%
    16:00 +8°C° 0 mm 4 m/s 758 mmHg 72%
    17:00 +10°C° 0 mm 3 m/s 758 mmHg 73%
    18:00 +8°C° 0.1 mm 4 m/s 758 mmHg 77%
    19:00 +8°C° 0.1 mm 4 m/s 759 mmHg 80%
    20:00 +7°C° 0.1 mm 4 m/s 759 mmHg 84%
    21:00 +5°C° 0.2 mm 6 m/s 760 mmHg 83%
    22:00 +2°C° 0.2 mm 9 m/s 761 mmHg 82%
    23:00 +1°C° 0.2 mm 11 m/s 762 mmHg 81%

    23 Fevereiro, Sábado

    Tempo Temperatura Precipitação Vento Pressão Humidade
    00:00 -2°C° 0.3 mm 11 m/s 762 mmHg 81%
    01:00 -3°C° 0.3 mm 11 m/s 763 mmHg 80%
    02:00 -4°C° 0.3 mm 11 m/s 764 mmHg 80%
    03:00 -6°C° 0.4 mm 11 m/s 764 mmHg 82%
    04:00 -7°C° 0.4 mm 11 m/s 765 mmHg 83%
    05:00 -8°C° 0.4 mm 10 m/s 766 mmHg 85%
    06:00 -8°C° 0.2 mm 10 m/s 766 mmHg 79%
    07:00 -8°C° 0.2 mm 10 m/s 767 mmHg 72%
    08:00 -8°C° 0.2 mm 9 m/s 768 mmHg 66%
    09:00 -6°C° 0 mm 9 m/s 768 mmHg 63%
    10:00 -6°C° 0 mm 9 m/s 769 mmHg 59%
    11:00 -5°C° 0 mm 9 m/s 769 mmHg 56%
    12:00 -5°C° 0 mm 9 m/s 769 mmHg 54%
    13:00 -4°C° 0 mm 9 m/s 768 mmHg 52%
    14:00 -4°C° 0 mm 9 m/s 768 mmHg 50%
    15:00 -4°C° 0 mm 8 m/s 768 mmHg 51%
    16:00 -4°C° 0 mm 8 m/s 768 mmHg 52%
    17:00 -4°C° 0 mm 8 m/s 768 mmHg 53%
    18:00 -5°C° 0 mm 8 m/s 768 mmHg 55%
    19:00 -5°C° 0 mm 8 m/s 769 mmHg 56%
    20:00 -6°C° 0 mm 7 m/s 769 mmHg 58%
    21:00 -6°C° 0 mm 8 m/s 769 mmHg 58%
    22:00 -6°C° 0 mm 8 m/s 769 mmHg 58%
    23:00 -6°C° 0 mm 8 m/s 769 mmHg 58%

    24 Fevereiro, Domingo

    Tempo Temperatura Precipitação Vento Pressão Humidade
    00:00 -7°C° 0 mm 8 m/s 768 mmHg 58%
    01:00 -7°C° 0 mm 8 m/s 768 mmHg 59%
    02:00 -8°C° 0 mm 9 m/s 768 mmHg 59%
    03:00 -8°C° 0 mm 9 m/s 768 mmHg 60%
    04:00 -8°C° 0 mm 8 m/s 768 mmHg 61%
    05:00 -8°C° 0 mm 8 m/s 768 mmHg 61%
    06:00 -9°C° 0 mm 9 m/s 768 mmHg 61%
    07:00 -9°C° 0 mm 9 m/s 768 mmHg 61%
    08:00 -9°C° 0 mm 9 m/s 768 mmHg 61%
    09:00 -8°C° 0 mm 9 m/s 768 mmHg 58%
    10:00 -6°C° 0 mm 9 m/s 768 mmHg 55%
    11:00 -5°C° 0 mm 9 m/s 768 mmHg 52%
    12:00 -5°C° 0 mm 9 m/s 768 mmHg 50%
    13:00 -4°C° 0 mm 9 m/s 768 mmHg 49%
    14:00 -3°C° 0 mm 9 m/s 767 mmHg 47%
    15:00 -4°C° 0 mm 9 m/s 767 mmHg 49%
    16:00 -4°C° 0 mm 9 m/s 767 mmHg 51%
    17:00 -5°C° 0 mm 9 m/s 767 mmHg 53%
    18:00 -5°C° 0 mm 9 m/s 767 mmHg 56%
    19:00 -6°C° 0 mm 9 m/s 768 mmHg 58%
    20:00 -6°C° 0 mm 9 m/s 768 mmHg 61%
    21:00 -8°C° 0.1 mm 9 m/s 768 mmHg 62%
    22:00 -8°C° 0.1 mm 9 m/s 767 mmHg 63%
    23:00 -8°C° 0.1 mm 9 m/s 767 mmHg 64%
    Mostrar mais